GEFSSE_500_meanwind_258.txt.gz
Wind_Speed
12 11 10 9 8 8 7 6 6 5 4 4 4 3 2 2 1 1 1 0 1 2 3 3 4 4 4 5 5 5 5 5 5 5 6 6 6 7 7 8 8 9 9
13 13 12 11 10 9 8 7 6 5 5 4 4 4 3 2 2 2 2 2 2 3 3 4 4 5 5 5 5 5 5 5 6 6 6 7 8 8 8 9 9 10 10
15 14 13 12 11 10 9 8 7 6 6 5 5 4 4 4 4 4 4 4 4 4 4 4 5 5 5 6 6 6 6 6 7 7 8 8 9 10 10 10 11 11 11
16 15 15 14 13 12 11 10 9 8 7 6 6 6 5 5 5 6 6 6 6 5 5 6 6 6 6 6 6 7 7 7 8 8 9 10 10 11 11 11 12 12 12
18 17 16 16 15 14 12 11 11 10 9 8 8 7 7 7 7 7 7 7 7 7 7 7 7 8 8 8 8 8 9 9 9 10 10 11 11 12 12 12 13 13 13
20 19 18 17 17 16 14 13 13 12 11 10 10 9 9 9 9 8 8 8 9 9 9 9 9 9 9 10 10 10 10 11 11 11 12 12 12 13 13 13 14 14 14
21 21 20 19 18 17 16 15 14 13 13 12 11 11 11 11 10 10 10 10 11 11 11 11 11 11 11 11 11 12 12 12 12 13 13 13 13 13 13 14 14 15 15
23 22 21 21 20 19 18 17 16 15 14 14 13 13 12 12 12 12 12 12 12 12 13 13 13 12 12 13 13 13 13 13 13 14 14 14 14 14 15 15 15 16 16
24 24 23 22 21 20 19 19 18 17 16 16 15 14 14 14 13 13 13 14 14 14 14 14 14 14 14 14 14 14 14 14 15 15 15 15 16 16 17 17 17 18 18
25 24 24 23 23 22 21 20 20 19 18 17 17 16 16 15 15 15 15 15 15 15 15 14 14 15 15 15 16 16 16 16 16 17 17 17 17 18 18 19 19 19 20
27 26 25 24 24 23 22 21 21 20 19 18 18 17 17 16 16 16 15 16 16 16 16 16 16 16 16 17 17 17 18 18 18 18 18 18 19 19 20 20 21 21 21
29 28 26 25 25 24 23 22 21 21 20 19 19 18 18 17 17 17 16 17 17 17 17 17 17 18 18 18 18 18 19 19 19 19 19 20 20 21 21 22 22 22 22
30 29 28 27 26 26 25 24 23 22 21 21 20 20 19 19 19 18 18 18 18 18 18 18 19 19 19 20 20 20 20 20 21 21 21 21 22 23 23 23 23 23 24
32 31 30 29 28 27 26 25 25 24 23 22 22 21 21 21 20 20 20 20 20 19 19 20 20 20 21 21 21 21 22 22 22 23 23 23 23 23 24 24 24 25 25
34 33 32 31 30 29 28 27 26 25 24 24 23 23 22 22 22 21 22 22 21 21 21 21 21 22 22 23 23 23 24 24 24 24 24 25 25 25 25 25 26 27 27
36 35 34 33 32 30 29 29 28 27 26 26 25 25 24 24 23 23 23 23 23 23 23 23 23 23 24 24 25 25 26 26 26 26 26 26 27 27 27 28 29 29 30
37 36 35 34 33 32 31 30 29 29 28 27 27 26 26 25 25 24 24 24 24 24 24 24 25 26 26 26 27 27 28 28 28 28 28 28 28 29 29 30 31 31 32
38 37 36 36 35 33 32 31 31 30 29 29 28 28 27 27 27 26 26 26 26 26 26 26 27 27 27 28 28 28 29 29 29 30 30 30 31 31 32 33 33 33 34
39 38 37 36 36 35 34 33 32 31 31 30 30 29 29 28 28 28 27 28 27 27 28 29 29 29 29 30 30 30 30 31 31 31 32 32 33 33 34 35 35 35 36
41 40 38 37 36 36 35 34 33 32 32 31 31 31 30 30 30 29 29 29 29 30 30 30 30 31 31 31 31 32 32 32 33 33 34 34 34 35 36 36 36 36 37
42 41 40 39 38 37 36 35 35 34 33 33 32 32 32 31 31 31 31 31 31 32 32 32 32 33 33 33 33 33 33 33 34 35 35 36 36 37 37 38 38 38 39
42 41 40 39 39 38 37 37 36 35 35 34 34 34 33 33 33 33 33 33 33 33 33 33 34 34 34 34 34 35 35 35 35 36 37 38 38 38 39 39 39 40 41
42 41 40 40 39 39 39 38 38 37 36 36 36 36 35 35 34 34 34 34 34 34 34 34 34 35 35 35 36 36 37 37 37 37 38 39 40 40 40 41 41 42 42
43 42 41 40 39 39 39 39 39 38 37 37 37 36 37 37 36 36 35 35 35 35 35 35 35 36 36 37 37 38 39 39 39 39 40 41 42 42 42 42 43 44 45
44 43 42 41 40 40 40 39 39 39 39 39 38 37 37 37 37 37 36 36 36 36 36 36 36 37 38 38 39 39 40 41 42 42 41 42 43 43 43 44 46 47 47
44 43 42 41 40 40 40 40 40 40 40 40 39 39 39 39 38 38 38 37 37 37 37 37 38 38 39 40 41 41 42 43 44 44 44 44 43 44 45 46 47 48 49

GEFSSE_500_meanwind_264.txt.gz
Wind_Speed
11 11 10 9 9 7 7 6 5 5 4 4 3 3 2 1 1 1 0 0 1 2 2 2 3 3 3 3 3 3 4 4 4 5 5 6 6 7 7 7 8 8 9
13 12 11 11 10 9 8 7 6 6 5 4 4 4 3 2 2 2 1 2 2 2 2 3 3 4 4 4 4 4 4 4 5 5 6 7 7 8 8 8 9 9 9
14 13 12 12 11 10 9 9 8 7 6 5 5 5 4 4 4 3 3 3 3 4 4 4 4 4 4 5 5 5 5 5 6 7 7 8 8 9 9 9 10 10 10
15 15 14 13 13 12 11 10 9 8 7 7 6 6 5 5 5 5 5 5 5 5 5 5 5 5 5 6 6 6 6 7 7 8 8 9 9 10 10 10 11 11 11
17 17 16 15 14 14 13 11 10 9 9 8 7 7 7 7 6 6 6 7 7 7 6 6 6 6 6 7 7 7 8 8 9 9 10 10 10 10 11 11 11 12 12
19 18 18 17 16 15 14 13 12 11 10 10 9 9 8 8 8 8 8 8 8 8 8 8 8 8 8 8 8 9 9 9 10 10 10 11 11 12 12 12 12 13 13
20 20 19 19 18 17 16 15 14 13 12 12 11 10 10 10 9 9 9 10 10 10 10 10 10 10 9 9 9 10 10 10 11 11 11 12 12 13 13 13 14 14 15
22 21 21 20 19 18 18 17 16 15 14 13 13 12 12 11 11 11 11 11 11 11 11 11 11 11 11 11 11 11 12 12 12 12 13 13 14 14 15 15 16 16 17
23 23 23 22 21 20 19 19 18 17 16 15 14 14 13 13 13 12 12 12 12 12 12 12 12 13 13 13 13 13 13 13 13 14 14 15 15 16 16 17 18 18 19
25 24 24 24 23 22 22 21 20 19 18 17 16 15 15 14 14 14 13 13 13 13 13 13 14 14 14 15 15 15 14 15 15 15 16 16 17 17 18 19 19 20 20
27 26 25 25 24 24 23 23 22 21 20 19 18 17 16 16 15 15 14 14 14 14 14 15 15 15 16 16 16 16 16 16 16 16 17 18 18 19 20 21 21 21 21
28 28 27 27 26 25 24 24 23 22 21 20 19 18 18 17 17 16 16 16 16 16 16 16 16 17 17 17 17 17 17 18 18 18 19 19 20 21 21 22 22 22 22
31 30 29 28 28 27 26 25 24 23 23 22 21 20 19 19 18 18 18 18 18 18 18 18 18 18 18 18 18 18 19 19 19 20 21 21 22 23 23 23 23 23 23
32 31 30 29 29 29 28 27 26 25 24 23 22 22 21 20 20 19 20 20 20 19 19 19 19 19 19 19 20 20 20 21 21 22 22 23 23 24 24 24 24 25 25
33 32 32 31 30 30 30 28 28 27 26 25 24 23 23 22 22 21 21 21 21 20 20 20 21 21 21 21 22 22 22 22 23 23 24 24 25 25 25 26 26 26 27
34 34 33 32 32 31 30 30 29 29 28 27 26 25 25 24 24 23 22 22 23 22 22 22 22 23 23 23 23 24 24 24 25 25 26 26 26 26 27 27 28 28 28
36 35 34 34 33 33 32 31 31 30 30 29 28 27 26 26 25 25 24 24 24 24 24 24 24 24 24 25 25 26 26 26 27 27 27 27 28 28 28 28 29 30 30
38 37 36 35 35 34 33 33 33 32 31 30 29 29 28 27 27 26 26 26 25 25 25 25 26 26 26 27 27 27 27 28 28 29 29 29 29 29 30 30 30 31 31
40 39 38 37 36 36 35 35 34 33 33 32 31 30 30 29 28 28 28 28 28 27 27 27 27 28 28 28 28 29 29 29 29 30 30 30 30 30 31 31 32 33 33
42 41 40 39 38 37 36 36 35 35 34 33 32 31 31 30 30 30 30 30 29 29 29 29 28 28 29 30 30 30 30 30 30 31 31 31 32 32 33 33 34 35 35
43 42 41 40 39 38 37 36 36 35 35 34 33 33 32 32 32 31 31 31 31 31 31 31 31 31 31 31 31 31 31 31 32 32 32 33 34 34 35 35 36 37 37
44 43 42 40 40 39 38 37 36 36 35 34 34 33 33 33 33 33 33 33 33 33 33 33 33 33 33 33 33 33 32 32 33 33 34 34 35 36 37 37 38 39 39
44 43 42 41 40 40 38 38 37 36 36 35 35 34 35 34 34 34 35 35 35 35 35 34 34 34 35 35 35 34 34 34 35 35 35 35 36 37 38 39 40 41 42
45 44 43 43 42 41 40 39 38 37 37 37 36 35 35 35 35 35 36 36 36 36 36 36 36 36 36 36 37 37 37 36 37 37 37 37 38 39 40 41 42 43 43
46 45 44 43 43 42 41 40 40 39 39 38 38 37 37 37 37 37 37 37 37 37 37 37 37 37 37 37 38 38 38 39 39 39 39 39 40 41 42 43 44 44 44
46 46 45 44 43 43 42 42 41 40 40 40 39 38 38 38 38 38 38 38 38 38 38 38 38 38 38 39 39 40 40 40 40 40 40 41 41 42 43 44 45 44 44

GEFSSE_500_meanwind_270.txt.gz
Wind_Speed
10 10 9 9 8 7 6 5 5 4 4 3 2 2 2 2 2 2 2 2 3 3 4 4 4 4 4 4 4 4 4 5 6 6 6 6 7 7 7 8 8 9 9
12 11 10 10 9 9 7 6 6 5 4 3 2 1 1 1 1 1 1 2 2 3 3 3 4 4 4 4 4 4 5 5 6 6 6 7 7 8 8 9 9 10 10
14 13 12 12 11 10 9 8 7 6 5 4 3 2 2 1 1 1 2 2 3 3 3 4 4 4 4 4 4 5 5 6 6 7 7 7 8 9 9 10 10 10 11
16 15 14 14 12 11 11 10 9 8 6 5 4 4 3 3 3 3 3 4 4 4 4 5 4 4 4 5 5 5 6 6 7 7 8 8 9 10 10 11 11 11 12
17 17 16 15 14 13 12 11 10 9 8 7 6 5 5 5 4 4 4 5 5 5 5 5 5 5 5 6 6 7 7 8 8 8 9 9 10 11 11 12 12 12 13
19 18 17 16 15 14 13 12 11 10 9 8 7 7 6 6 6 6 6 6 6 6 6 6 6 6 6 7 7 8 8 8 9 9 10 10 11 12 12 13 13 14 15
21 20 19 18 17 16 15 14 13 11 10 9 9 8 8 7 8 7 8 8 7 7 7 7 7 7 8 8 8 9 9 10 10 10 11 12 12 13 14 14 15 16 16
23 22 21 20 19 18 17 16 14 13 12 11 11 10 9 9 9 9 9 8 8 9 9 9 9 9 9 10 10 10 11 11 12 12 13 13 13 14 15 16 17 17 17
24 24 23 22 21 20 19 18 16 15 14 13 13 12 11 11 11 10 10 10 10 10 10 10 10 11 11 11 11 12 12 13 13 14 14 14 15 16 17 17 18 19 19
26 25 24 23 22 22 21 20 18 17 16 15 14 13 13 12 12 12 11 11 11 11 12 12 12 12 13 13 13 13 14 14 15 15 15 16 17 17 18 19 19 20 20
27 27 26 25 24 23 23 22 20 19 18 17 16 15 15 14 14 13 13 13 13 13 13 13 13 14 14 14 15 15 15 15 16 16 17 17 18 19 20 20 21 21 21
29 28 28 27 26 26 25 24 23 22 21 20 18 17 16 16 15 15 15 14 14 14 14 15 15 15 15 15 16 16 17 17 17 18 19 19 20 20 21 21 22 22 22
31 30 30 29 28 27 27 26 25 24 23 22 21 20 19 18 17 17 17 16 16 16 16 16 16 16 16 17 17 18 18 18 19 19 20 21 21 22 22 23 23 23 24
33 32 31 31 30 29 28 27 27 26 25 24 23 22 21 20 20 19 19 18 18 18 18 18 18 18 18 18 19 20 20 21 21 22 22 22 23 23 24 24 25 25 25
35 34 33 33 32 31 30 29 28 27 27 26 25 24 24 23 22 22 21 21 20 20 20 20 20 20 20 20 21 21 22 23 23 24 24 24 25 25 25 26 26 26 26
36 36 35 34 33 32 32 31 30 28 28 27 27 27 26 25 24 24 24 23 23 22 22 22 22 22 22 22 23 23 24 24 25 25 26 26 26 26 27 27 27 28 28
38 37 36 36 35 34 33 33 32 30 29 29 29 28 28 27 26 26 26 25 25 24 24 23 23 23 23 23 24 25 25 26 26 27 27 27 28 28 28 29 29 29 29
40 38 38 37 37 36 35 34 33 32 31 31 30 30 30 29 28 28 27 27 26 26 25 25 25 25 25 25 26 26 26 27 28 28 28 29 29 30 30 30 31 31 31
41 40 39 38 38 37 36 36 35 34 33 32 32 32 31 31 30 29 29 28 28 27 27 27 27 27 27 27 27 27 27 28 29 29 30 30 31 31 32 32 32 32 33
42 41 40 39 39 38 38 37 36 36 35 34 34 33 33 32 32 31 31 30 29 29 29 29 29 29 30 30 30 30 30 30 30 30 31 32 32 32 33 33 34 34 35
44 43 42 41 40 40 39 38 37 37 37 36 35 35 35 34 33 32 32 32 31 30 30 30 31 31 31 32 32 32 32 32 32 32 32 32 33 34 34 35 35 36 37
45 44 43 42 42 41 40 39 39 39 38 37 37 37 36 35 34 34 33 32 32 32 32 32 32 32 33 33 33 33 33 33 34 34 34 34 34 35 36 37 38 38 38
47 46 45 44 43 42 42 41 41 40 39 38 38 38 38 36 36 35 34 34 34 33 33 34 34 33 33 34 34 34 34 34 35 35 36 36 37 37 38 38 39 40 40
48 47 46 46 45 44 44 42 41 40 39 39 39 40 40 39 37 36 36 36 36 36 35 35 35 35 35 35 35 35 36 36 36 36 37 38 39 39 40 40 41 41 41
49 48 47 47 46 45 44 43 42 42 41 40 40 40 40 39 38 37 37 37 37 37 37 37 37 37 36 36 36 37 37 38 38 38 38 39 40 41 42 43 42 42 43
50 50 49 48 47 47 46 45 44 43 43 42 41 40 40 39 39 39 39 39 38 38 38 38 38 38 38 38 38 39 39 39 39 40 40 40 41 42 43 44 44 44 44

GEFSSE_500_meanwind_276.txt.gz
Wind_Speed
11 10 10 9 9 9 8 8 7 7 6 5 5 4 4 4 3 2 2 2 2 3 3 2 2 2 1 2 2 2 2 2 3 3 4 4 5 5 6 7 7 7 8
13 12 11 11 10 10 9 9 8 8 7 6 5 5 4 4 3 2 2 2 1 1 1 1 1 1 1 1 1 2 2 3 3 4 4 5 5 6 7 7 8 8 8
15 14 13 12 12 11 11 10 9 9 8 7 6 5 5 4 3 2 2 1 1 1 1 0 0 0 1 1 1 2 2 3 4 5 5 5 6 6 7 8 8 9 9
17 16 15 14 14 13 13 12 11 10 9 8 7 6 6 5 4 3 2 2 2 1 1 1 1 1 1 2 2 3 3 4 5 5 6 6 7 7 8 9 9 10 11
18 18 17 16 16 15 14 14 13 12 11 9 9 8 7 6 5 4 3 3 3 2 2 2 2 2 3 3 4 4 5 5 5 6 7 7 8 8 9 10 11 11 12
20 19 19 18 17 17 16 15 14 13 12 11 10 9 8 7 7 6 5 5 4 4 4 4 4 4 5 5 6 6 6 6 7 7 8 8 9 10 11 11 12 13 13
22 21 21 20 19 18 17 16 16 15 14 13 12 11 10 9 9 8 7 7 6 6 6 5 5 6 7 7 7 7 7 8 8 8 9 10 10 11 12 12 13 14 14
23 22 22 22 20 20 19 18 17 16 15 14 13 13 12 11 10 10 9 8 8 8 7 7 7 8 8 8 8 8 9 9 10 10 11 11 12 12 13 14 14 15 15
24 23 23 23 22 21 21 20 19 18 17 16 15 15 14 13 12 11 10 10 9 9 9 9 9 9 9 9 9 10 10 11 11 11 12 12 13 14 14 15 16 16 16
26 25 25 24 24 23 22 21 20 19 19 18 17 16 16 15 14 13 12 12 11 11 11 10 10 10 10 10 11 12 12 12 12 12 13 13 14 15 16 16 17 17 18
28 28 27 26 26 24 23 23 22 21 21 20 19 18 17 16 15 15 14 13 13 13 12 12 12 12 12 12 12 12 13 13 13 14 14 14 15 16 17 17 18 18 19
30 29 29 28 28 27 25 24 24 23 22 22 21 20 19 18 17 17 16 15 14 14 14 14 13 13 13 13 13 13 14 14 14 15 16 16 17 18 18 19 19 19 20
32 31 30 30 30 29 27 27 26 25 24 23 22 22 21 21 20 19 18 17 16 16 16 15 15 15 14 14 14 15 15 15 16 17 17 18 19 19 20 20 21 21 21
34 33 31 31 31 30 29 29 28 27 26 24 23 23 23 22 22 21 20 20 19 18 17 17 17 16 16 16 16 17 17 17 17 18 19 20 20 21 22 22 22 23 23
36 36 34 33 32 31 31 30 29 29 28 26 25 25 24 24 23 22 22 22 21 21 20 19 18 18 18 18 18 19 19 19 19 20 20 21 22 23 23 24 24 24 25
38 38 37 36 34 34 33 32 31 30 30 28 27 26 26 26 26 25 24 24 23 23 22 22 21 21 20 20 20 20 21 21 21 22 22 23 24 24 25 25 26 26 27
39 39 38 37 37 36 35 34 33 33 32 31 30 29 28 28 28 27 27 27 26 25 25 25 25 24 23 22 22 22 23 23 24 24 25 25 25 26 26 27 27 28 28
41 41 40 39 38 37 36 36 35 35 34 34 33 31 30 30 29 29 29 29 28 28 27 27 26 26 26 25 25 25 25 25 26 26 26 27 27 27 28 28 29 29 30
43 43 41 40 40 38 38 37 37 37 36 36 35 35 33 32 32 32 31 31 30 30 29 29 28 28 27 28 28 27 27 27 27 28 28 29 29 29 29 30 31 31 31
44 44 43 42 41 40 40 39 39 38 38 37 37 37 36 35 34 34 34 33 33 32 31 31 30 30 29 29 29 29 29 29 29 29 29 30 30 30 31 31 32 32 33
45 45 45 43 42 42 41 40 40 40 39 39 38 38 37 36 35 35 35 34 34 34 33 33 32 32 32 32 31 31 31 31 31 31 31 31 31 31 32 33 34 34 34
45 46 45 45 44 43 42 41 41 41 41 40 40 39 38 38 37 36 36 36 36 36 35 34 34 34 34 34 33 33 33 33 33 33 33 34 34 34 35 35 35 35 36
47 47 46 46 46 44 43 43 42 42 42 42 42 40 40 39 39 38 37 37 37 37 37 37 36 35 35 35 35 35 35 34 34 34 34 35 36 36 37 38 37 36 37
48 48 48 47 47 46 45 44 44 43 43 42 42 41 41 41 40 40 39 39 39 39 39 38 38 37 36 36 36 36 36 35 35 34 35 36 37 38 39 39 40 39 39
48 49 49 48 48 47 46 45 45 45 44 43 43 43 42 42 41 41 40 40 40 40 40 40 39 38 38 37 36 36 36 36 37 37 37 37 38 39 40 40 41 41 41
47 48 49 49 49 48 47 47 46 46 45 45 45 45 44 43 42 41 42 42 42 42 41 41 40 39 38 38 38 38 38 38 38 38 38 38 39 39 40 41 41 41 42

GEFSSE_500_meanwind_282.txt.gz
Wind_Speed
11 10 9 9 9 9 8 8 7 7 6 6 5 4 3 3 2 1 1 1 1 2 2 2 1 1 1 2 2 2 3 3 4 4 5 5 6 6 7 8 8 8 9
12 12 11 10 10 10 10 9 9 8 7 7 6 5 4 4 3 2 2 1 1 2 2 1 1 0 1 1 1 2 3 3 4 4 5 5 6 7 7 7 8 9 9
14 13 12 12 12 12 11 11 10 10 9 8 7 6 5 5 4 3 3 2 2 2 1 1 1 1 1 1 2 2 3 3 4 5 5 6 6 7 7 8 9 9 10
15 14 14 13 13 13 13 12 12 11 11 10 9 8 7 6 5 4 4 3 3 3 2 2 2 2 2 3 3 3 4 4 5 5 6 6 7 7 8 9 10 10 11
17 16 16 15 15 14 14 14 13 13 12 11 10 9 8 7 6 6 5 4 4 4 4 3 4 4 4 4 4 4 5 5 6 6 7 7 8 8 9 10 11 11 12
19 18 17 17 16 15 15 15 15 14 13 13 12 11 10 9 8 7 7 6 5 5 5 5 5 5 5 6 6 6 6 7 7 7 8 8 9 9 10 11 11 12 13
21 20 19 18 18 17 17 17 16 16 15 14 13 12 12 11 10 9 8 8 7 7 7 6 6 6 7 7 7 7 8 8 8 8 9 9 10 10 11 12 12 12 13
23 22 22 21 20 20 19 18 18 17 17 16 15 14 13 13 12 11 11 10 10 9 9 8 8 8 8 9 9 9 9 9 9 9 10 10 11 11 12 12 13 13 14
25 24 24 23 22 22 21 20 20 19 18 18 17 16 15 15 14 13 13 12 12 11 11 10 10 10 10 10 10 10 10 11 10 10 10 11 12 12 13 13 14 14 15
27 26 26 26 25 24 23 22 21 20 20 19 18 18 17 16 16 15 14 14 14 13 13 12 12 11 11 11 12 12 12 12 12 12 12 12 13 13 14 14 15 15 16
29 28 28 27 27 26 25 24 23 22 21 20 20 19 18 18 17 17 16 16 15 15 14 14 13 13 13 13 13 13 12 12 12 13 13 13 14 14 15 16 16 17 17
31 30 29 29 28 28 27 26 25 24 23 22 21 20 19 19 19 19 18 18 17 17 16 16 16 15 15 14 14 14 14 13 13 14 14 14 15 16 16 17 18 18 19
32 32 32 32 31 30 29 28 27 26 25 24 23 22 21 21 21 21 21 20 19 19 19 18 18 18 17 17 16 16 15 15 15 16 16 16 17 17 18 19 19 20 20
34 34 32 33 32 32 31 30 29 28 27 26 25 25 24 23 23 23 22 22 21 21 21 21 20 20 19 19 18 18 17 17 17 17 18 18 19 20 20 20 21 22 22
36 35 34 35 34 34 33 33 32 31 29 28 27 26 26 25 24 24 24 23 23 23 23 22 22 22 22 21 20 19 19 19 19 19 20 20 21 21 22 22 23 23 24
37 36 36 36 35 35 35 35 34 33 32 31 30 29 28 27 26 26 25 25 25 25 25 24 24 23 23 23 22 22 22 21 21 21 21 22 23 23 24 25 25 26 26
38 38 37 37 36 36 36 36 37 35 34 33 32 32 30 29 29 28 27 27 27 26 26 26 26 25 25 25 25 24 24 24 23 23 24 24 25 26 27 27 27 27 27
40 40 39 38 37 37 37 37 38 37 36 35 34 34 33 32 30 30 29 29 28 28 28 27 27 27 27 27 27 27 27 27 27 27 27 27 27 27 28 28 28 28 28
41 41 40 40 39 39 39 39 39 39 38 37 36 35 35 33 32 32 32 31 30 30 29 30 29 29 30 29 29 29 30 30 30 30 30 29 29 29 29 29 29 30 30
42 42 41 40 40 40 40 41 41 40 40 39 38 37 37 36 35 34 33 33 32 31 31 31 31 31 31 32 32 32 32 32 32 32 31 31 31 30 30 30 30 31 31
43 43 43 42 41 41 41 41 42 42 41 41 41 40 39 38 37 37 35 34 34 34 33 33 33 33 33 34 34 33 33 33 32 33 33 33 32 32 31 32 32 32 33
43 44 44 44 42 42 42 42 43 44 43 43 43 42 41 41 39 38 38 37 36 36 36 36 35 35 35 35 35 35 34 34 34 34 34 34 33 33 33 33 34 33 34
43 44 44 44 44 44 44 44 44 45 45 44 44 43 42 42 41 40 40 39 38 37 37 38 37 37 37 37 37 37 36 36 36 35 35 34 35 35 34 34 35 35 35
43 44 44 44 44 44 45 45 46 45 46 45 44 44 44 43 43 42 41 40 39 39 39 39 38 38 38 38 39 38 38 38 37 36 36 36 36 36 36 36 37 36 37
44 44 45 45 45 45 46 46 47 47 46 46 46 46 45 45 44 43 43 42 41 40 40 40 40 39 39 39 39 39 39 39 38 38 38 38 37 37 38 38 38 38 38
44 44 45 45 46 46 47 47 47 47 47 47 47 47 46 45 45 45 45 44 43 42 42 42 42 41 41 40 40 40 40 39 39 39 40 39 39 39 39 39 40 40 40

GEFSSE_500_meanwind_288.txt.gz
Wind_Speed
10 9 8 8 7 7 7 6 5 5 5 4 4 4 4 3 3 2 2 2 2 2 2 2 2 2 1 0 0 1 1 2 3 4 4 5 5 5 6 7 7 8 8
11 11 10 9 9 8 8 7 7 6 6 6 5 5 5 5 4 4 3 3 3 3 3 3 3 2 1 1 1 2 2 3 3 4 4 5 5 6 6 7 7 8 8
12 12 11 11 10 10 10 9 8 8 8 7 6 6 5 5 5 5 4 4 4 4 3 3 4 3 2 2 3 3 3 3 4 5 5 5 6 6 7 7 8 8 9
14 14 13 12 12 11 11 11 10 10 9 8 7 7 7 6 6 6 5 5 5 4 5 5 4 4 4 4 4 4 4 5 5 5 5 6 6 7 7 8 8 8 9
16 15 15 14 14 13 13 13 12 11 11 10 9 8 8 8 7 7 7 6 5 5 5 5 6 5 5 5 5 5 5 6 6 6 6 6 7 7 8 8 9 9 10
18 17 16 16 16 15 15 15 14 14 13 12 12 11 10 10 9 9 8 8 7 7 7 6 6 7 7 6 6 6 6 7 7 7 7 7 7 8 8 9 9 10 10
19 18 18 18 17 17 17 17 16 16 15 14 14 13 12 11 11 11 10 10 9 8 8 8 8 8 8 8 8 8 8 8 8 8 8 7 8 8 9 9 10 10 11
21 20 20 20 19 19 18 18 18 18 17 16 15 15 14 13 13 13 12 12 11 10 10 10 9 9 9 10 10 9 9 8 8 9 9 9 9 9 10 10 11 11 11
23 23 22 22 22 21 20 20 20 20 19 18 18 17 16 15 15 15 14 14 13 12 12 12 11 11 11 11 11 11 10 10 10 10 11 10 10 11 11 12 12 12 13
26 25 25 24 24 24 23 22 22 21 21 20 20 19 18 17 17 16 16 16 15 14 14 13 13 13 12 12 12 12 12 11 11 11 12 12 12 12 13 13 13 14 14
28 27 26 26 26 26 25 24 24 23 23 22 22 21 20 19 19 18 18 17 17 16 16 16 15 15 14 14 14 13 14 13 13 13 13 13 13 13 14 14 15 15 15
29 28 28 28 28 29 28 27 26 25 25 24 24 23 22 21 20 20 19 19 19 19 18 18 18 17 16 16 15 15 15 15 15 14 14 14 14 15 15 16 16 17 17
30 30 29 29 29 29 28 28 28 27 26 26 26 25 24 23 22 21 21 21 21 21 21 20 20 19 18 18 17 17 17 17 17 17 16 16 16 17 17 17 18 18 19
32 32 31 30 30 30 30 30 30 29 28 28 28 27 26 25 25 24 24 23 23 23 22 22 22 21 21 20 20 19 19 19 19 19 19 19 18 19 19 20 20 20 20
34 33 33 32 32 31 32 31 31 31 30 29 29 29 28 28 27 27 26 26 26 25 25 24 24 24 23 23 23 22 21 21 21 21 21 21 21 21 21 22 22 22 23
35 34 34 33 33 33 33 33 33 33 32 32 31 31 31 30 30 29 28 28 28 28 27 26 26 25 25 25 25 24 24 23 23 23 24 24 24 23 24 24 24 25 25
36 35 35 34 34 34 33 34 34 34 33 33 33 33 33 33 32 31 31 30 30 30 29 29 28 27 27 27 27 26 26 26 26 26 26 26 26 26 26 27 27 27 27
37 37 36 36 36 35 34 35 35 35 35 35 35 35 35 35 34 34 33 32 32 31 31 30 30 30 29 29 29 28 28 28 28 28 28 28 29 29 28 28 28 29 30
38 38 37 36 36 36 36 35 35 35 36 36 36 36 36 37 37 36 35 34 34 33 33 32 32 32 31 30 30 30 30 30 30 30 30 30 31 31 30 30 30 31 31
38 38 38 37 37 37 37 36 36 36 36 36 37 38 38 38 38 38 37 36 35 35 35 34 34 34 33 32 32 32 33 33 33 32 32 32 33 33 33 32 32 33 33
38 38 38 38 38 38 37 37 37 37 37 37 38 39 40 39 39 40 39 37 37 37 37 37 36 35 35 35 35 35 34 35 35 35 34 34 35 35 35 35 35 35 35
38 40 40 39 39 39 38 39 39 40 40 40 40 40 41 41 41 41 41 40 39 38 39 39 38 37 37 37 37 37 36 36 35 36 36 36 36 36 36 36 36 36 36
39 40 41 41 40 40 41 41 41 42 42 42 42 42 42 43 43 42 42 42 41 40 40 40 39 38 38 38 38 38 37 37 36 36 36 36 36 36 36 36 37 37 37
39 41 41 42 42 42 42 42 42 42 43 43 43 44 44 44 44 44 43 44 43 42 41 40 39 39 39 38 39 39 39 38 38 37 36 36 36 36 37 37 37 38 38
40 41 41 41 42 43 44 45 44 43 43 44 45 44 44 45 45 45 45 44 44 43 42 41 41 41 41 40 40 39 39 38 38 38 37 37 38 38 38 38 38 39 39
41 42 42 42 43 44 45 46 46 45 45 44 45 45 46 46 46 46 45 44 44 43 43 43 43 43 42 41 41 41 40 39 39 39 39 39 39 39 39 38 39 40 39